Location: Unspecified
(39.0670°S, 0.0000°E)
Time: 02:55:41
(UTC+00:00)

ISS - Pass Details

Date: 21 June 2019
Orbit: 409 x 418 km, 51.6° (Epoch: 20 July)

Event Time Altitude Azimuth Distance (km) Brightness Sun altitude
Rises 18:36:47 0° 326° (NW) 2,366 0.8 -21.0°
Reaches altitude 10° 18:38:56 10° 333° (NNW) 1,509 -0.4 -21.4°
Enters shadow 18:41:05 31° 359° (N) 776 -2.3 -21.8°
